Location: Moscow
(55.7500°N, 37.5830°E)
Time: 06:10:48
(UTC+03:00)

Transit 4A - Pass Details

Date: 03 December 2021
Orbit: 863 x 981 km, 66.8° (Epoch: 26 January)

Event Time Altitude Azimuth Distance (km) Brightness Sun altitude
Exits shadow 06:11:23 18° 233° (SW) 2,199 9.5 -19.2°
Drops below altitude 10° 06:14:00 10° 210° (SSW) 2,713 10.1 -18.9°
Sets 06:17:17 0° 194° (SSW) 3,666 11.0 -18.4°
